Back to catalog

STARLINK-33820

AliveCommunicationsVLEO
NORAD 63584·PAYLOAD·🇺🇸 United States

Launched Apr 14, 2025 from Cape Canaveral Space Force Station

Loading…

Next Passes (next 24 hours)

TLE

FreshSource: CelesTrak SupGP

Epoch: Sep 15, 2026, 02:05 UTC

1 63584C 25076R   26258.08729167  .00040229  00000+0  14574-2 0  2586
2 63584  43.0017 331.6294 0001459 267.9853  13.0286 15.27551499    19

Track STARLINK-33820 in real time with AllMySat

Download on the App Store